Location: Emblem
(62.4273°N, 6.4710°E)
Time: 20:02:51
(UTC+02:00)

Vanguard 2 - Pass Details

Date: 08 February 2023
Orbit: 553 x 2927 km, 32.9° (Epoch: 27 March)

Event Time Altitude Azimuth Distance (km) Brightness Sun altitude
Rises 01:08:12 0° 247° (WSW) 5,985 - -42.6°
Reaches altitude 10° 01:14:06 10° 229° (SW) 5,334 - -42.5°
Maximum altitude 01:22:38 17° 197° (SSW) 5,093 - -42.3°
Drops below altitude 10° 01:31:46 10° 166° (SSE) 5,752 - -42.1°
Sets 01:38:38 0° 149° (SSE) 6,660 - -41.9°
